Vertical_Velocity
-1 -0 -1 -2 -2 -1 -0 -1 -2 -2 -2 -1 -2 -1 -0 -1 4 -4 -0 -3 -2 -1 -0 0 -2 2 -1 -5 1 5 -2 -3 1 5 3 14 4 2 -1 2 5 7 7 9 -7
-1 -1 -1 -2 -0 -1 -2 -1 -0 0 0 1 0 0 -2 -3 -3 -2 -3 -2 -2 -2 -1 -0 3 0 5 4 -1 3 -1 4 9 11 -2 -1 2 1 -4 7 6 -5 9 8 12
-1 -1 -2 -1 -1 -0 -0 0 -0 -2 -1 -1 -2 -1 -0 -1 -1 -3 -4 -4 -1 -2 -3 1 -2 -2 -2 -3 3 -0 2 0 8 11 -4 -2 -4 10 -2 3 4 0 13 10 7
-1 -1 -1 0 -1 -1 -1 -2 -2 -2 -1 -1 -3 -0 1 -1 -3 0 -1 -2 -4 -6 -5 -7 -5 -2 -1 1 6 -3 6 8 5 -2 -0 -3 4 -24 5 -3 4 3 1 10 4
-1 -0 -0 0 -1 -1 -3 -1 0 -1 -2 -3 -0 0 -1 -2 -2 1 -0 -3 -4 0 -4 -5 -3 -1 -3 -2 -4 3 3 -7 5 14 6 2 5 -4 -25 27 -22 -4 3 4 8
-2 -1 -1 -0 -1 -2 -1 -3 -2 -2 -2 -2 -1 -2 -1 -4 -3 -3 -6 -4 -3 -3 -3 -1 -2 0 -3 -3 -0 -6 -13 -13 3 -0 -1 1 -14 0 -3 -9 0 -13 -1 4 3
-1 -1 -1 -0 -1 -2 -3 -2 -1 -1 -2 -1 -2 -3 -3 -2 -5 -3 -4 -11 -8 -5 -3 -2 -2 -4 -1 -3 -3 -2 -11 -1 -1 -16 -9 12 -15 -11 -11 -10 -12 -23 -2 -9 2
-1 -2 -2 -2 -2 -3 -5 -2 0 -1 -1 -1 -2 -3 -1 -2 -6 -7 1 -0 -9 -2 -1 -1 2 1 -4 -3 0 -7 2 -9 10 -14 8 20 -44 4 -6 -5 -21 -11 -34 -3 2
-0 -1 -1 -1 -1 -3 -4 -1 -2 -3 -1 -2 -0 -0 -3 -5 3 -3 -8 -9 -4 -1 0 -1 2 1 -2 -5 -5 -3 -8 -4 -25 -0 -8 16 -27 -9 17 3 -4 -17 -12 -12 -15
-1 -2 -1 -2 -1 -5 -1 -1 -3 -3 -1 -2 -5 -4 -2 -5 -7 -7 4 -2 -10 -6 6 -2 -2 -2 1 -9 -3 -9 -7 3 -7 -24 6 -5 -14 -8 -0 6 -1 -3 -24 -31 -8
-2 -2 -1 -0 -4 -4 -2 -2 -3 -3 0 -2 -4 0 1 -5 -9 5 -6 -9 -1 -1 -10 -5 -1 -3 -1 3 2 2 4 -1 -2 4 3 -3 -13 -13 3 -3 2 -6 -10 -19 -30
-2 -2 -1 -1 -1 -3 -2 -1 -1 1 -3 -2 -1 -2 -3 -3 1 -13 -7 -3 -10 -5 1 3 -2 -0 -3 -1 -2 1 -1 -13 -4 -2 8 2 -29 5 -4 -1 3 5 -0 -17 -19
-2 -2 -1 -1 -5 0 -5 -6 -3 -1 -2 -2 -3 -6 -12 -2 0 -10 -6 -1 -9 -4 -7 -1 -2 -2 1 -3 -2 1 1 -8 9 1 -0 -0 -12 5 -3 0 0 3 4 -4 -2
-0 -2 0 -5 -4 -5 -1 -5 -5 -3 -1 -2 -3 -1 1 -4 2 -1 -5 -8 0 -6 -0 0 -0 -3 -1 -0 7 -14 6 7 -2 14 -2 11 -6 -7 -4 -5 0 3 4 2 -6
-2 -1 0 -4 -2 0 -5 -4 -3 0 -6 -5 -3 -4 1 -5 -2 7 -8 -6 -3 1 -5 3 -10 -4 -6 -0 3 -3 -3 8 1 2 3 4 10 3 -1 -8 -5 -0 3 4 5
-2 -1 -3 -4 -3 -5 -5 -3 -2 -6 -8 -2 0 2 -5 -11 -1 1 -9 -1 -3 -2 0 4 2 2 1 -1 -1 -3 -1 -23 2 3 -4 1 5 5 -8 -6 -15 7 -0 -4 1
-1 -1 -2 -6 -3 -4 -4 -3 -2 -13 -1 4 -11 -2 1 -8 -2 -7 -5 -8 -13 -23 -12 -10 -3 3 3 -6 -5 -1 -13 -8 -17 -12 -5 6 -6 -2 5 1 1 -13 -30 -7 -6
-1 -2 -3 -5 -4 -2 -5 -4 -9 -4 -3 -1 -4 -1 -4 4 -1 0 -4 -3 -2 -5 -1 -6 -27 -1 4 3 0 -4 0 2 2 1 -6 -2 1 -9 5 13 12 15 7 4 -13
-1 -2 -3 -4 -2 -4 -2 -7 -4 -0 -1 -1 1 1 -2 -10 2 -8 -2 1 -3 -2 -7 1 -10 -5 0 7 3 -4 -12 12 6 -2 10 -3 3 -7 -9 -19 -33 -17 -3 -3 -5
-0 -1 -3 -2 -4 -4 -3 -5 -2 0 -2 1 -2 -1 -5 -0 -3 -5 -0 -0 -1 1 4 -6 -10 3 -4 -3 6 1 7 -15 -4 0 -3 -5 -1 -1 -19 -17 5 -4 -2 -1 3
-2 -4 -3 -2 -3 -3 -9 -3 -2 -3 -2 -2 1 -2 -4 -6 -0 -2 1 -0 -0 -1 3 3 2 -24 1 5 4 -3 -1 -1 3 5 3 0 -8 2 -6 -1 -2 -3 7 8 6
-1 -2 -2 -2 -5 -6 -4 -2 1 -0 -2 -2 -2 -0 1 -0 -2 0 -2 5 -1 7 -6 4 1 -5 -4 -3 6 7 4 -2 7 -5 -3 8 -23 4 -2 6 2 6 6 9 -3
-0 -2 -4 -2 -2 -3 -3 -5 -2 0 0 -0 -2 -4 3 4 -8 3 -0 4 -1 2 -3 4 1 -5 -17 3 6 3 7 10 1 0 1 7 -26 5 7 6 9 9 9 -3 13
-4 -4 -5 -1 -2 -2 -3 -3 -2 1 -2 -2 -3 -1 -6 -4 4 -7 0 -7 6 -0 1 -1 0 6 1 -5 19 14 3 8 -3 5 -5 1 -19 -11 -0 -5 -4 -1 3 14 5
-2 -3 -1 -4 -3 -3 -2 0 -0 -1 -3 -1 0 3 3 -2 -10 -3 8 -4 5 -1 5 -2 -4 3 12 4 4 8 8 -11 1 4 2 -11 6 1 7 -3 -3 -1 8 15 4
-0 -2 -4 -2 -1 -1 -2 -3 -4 -2 -2 0 0 1 1 0 5 -15 -1 11 4 1 -4 -1 -9 -4 -9 0 5 9 10 -5 -6 7 -2 -3 6 27 10 5 12 13 3 15 1
-3 -2 0 -1 -1 -1 -1 -1 -2 -2 -1 -4 -4 -3 0 -1 1 2 3 1 1 -2 -5 -1 1 0 -10 -2 4 1 -3 8 10 6 8 -3 6 1 -6 6 -7 8 6 -0 11
Height
3143 3141 3138 3136 3133 3130 3127 3125 3122 3119 3117 3114 3111 3107 3104 3102 3099 3094 3093 3090 3086 3083 3081 3080 3077 3074 3071 3070 3069 3067 3060 3050 3054 3057 3058 3060 3059 3061 3061 3058 3067 3072 3073 3075 3076
3143 3140 3137 3134 3131 3128 3125 3122 3119 3117 3115 3112 3108 3104 3099 3095 3095 3090 3087 3084 3081 3078 3076 3073 3071 3068 3066 3063 3058 3057 3049 3048 3050 3049 3043 3042 3046 3046 3045 3046 3053 3057 3061 3066 3067
3142 3140 3137 3133 3130 3127 3124 3121 3117 3115 3112 3108 3105 3099 3094 3090 3087 3084 3082 3079 3078 3074 3069 3063 3058 3056 3054 3052 3051 3045 3041 3041 3041 3037 3031 3030 3033 3033 3032 3035 3039 3044 3049 3051 3058
3141 3139 3135 3132 3129 3126 3122 3118 3114 3111 3108 3104 3101 3096 3091 3087 3087 3079 3076 3073 3070 3066 3060 3055 3052 3047 3044 3042 3040 3035 3036 3034 3029 3028 3026 3024 3022 3022 3023 3021 3024 3027 3034 3037 3042
3140 3138 3134 3131 3128 3124 3120 3117 3112 3109 3105 3101 3095 3091 3086 3082 3081 3078 3073 3069 3063 3058 3051 3045 3040 3036 3035 3034 3032 3032 3029 3028 3027 3024 3020 3017 3015 3012 3011 3018 3015 3014 3020 3024 3029
3140 3136 3133 3130 3127 3123 3119 3115 3110 3106 3102 3097 3093 3085 3082 3082 3078 3076 3071 3065 3058 3053 3047 3041 3036 3033 3031 3029 3028 3026 3023 3021 3019 3015 3011 3009 3005 3003 3002 3001 3000 3005 3008 3011 3016
3139 3135 3132 3129 3126 3122 3118 3113 3108 3102 3097 3092 3088 3083 3080 3080 3077 3072 3067 3059 3050 3043 3038 3035 3034 3031 3029 3028 3026 3022 3018 3015 3015 3011 3006 3002 2996 2996 2995 2993 2990 2992 2995 2997 3003
3138 3134 3131 3127 3123 3120 3117 3111 3105 3099 3093 3087 3083 3079 3078 3077 3072 3067 3061 3058 3049 3041 3036 3033 3031 3029 3026 3024 3022 3019 3015 3009 3008 3004 3000 2999 2981 2984 2985 2985 2985 2984 2985 2984 2990
3137 3133 3130 3126 3121 3118 3113 3108 3102 3095 3089 3083 3080 3078 3077 3074 3071 3064 3054 3047 3042 3039 3034 3031 3030 3028 3025 3022 3019 3016 3010 3005 2999 3000 2994 2996 2978 2975 2978 2977 2975 2976 2976 2973 2976
3136 3133 3129 3124 3119 3115 3109 3104 3099 3092 3087 3082 3080 3080 3076 3069 3062 3057 3053 3046 3040 3034 3033 3029 3026 3024 3024 3021 3020 3012 3006 3002 2999 2990 2988 2983 2973 2966 2969 2969 2967 2967 2966 2966 2964
3136 3132 3127 3122 3117 3112 3106 3101 3097 3088 3083 3081 3080 3077 3072 3067 3060 3056 3048 3042 3038 3032 3027 3026 3025 3023 3022 3021 3018 3013 3008 2999 2990 2988 2982 2976 2965 2958 2958 2958 2956 2957 2958 2958 2955
3134 3130 3125 3121 3117 3110 3105 3099 3094 3089 3080 3079 3077 3073 3068 3063 3054 3050 3045 3038 3033 3029 3026 3026 3023 3022 3020 3018 3015 3010 3003 2991 2978 2980 2979 2963 2953 2953 2953 2950 2949 2948 2949 2950 2949
3133 3129 3124 3120 3114 3109 3103 3097 3088 3081 3079 3078 3075 3071 3065 3057 3051 3046 3043 3039 3031 3027 3024 3023 3022 3020 3017 3014 3010 3006 3000 2986 2982 2960 2965 2951 2946 2948 2947 2945 2942 2941 2941 2941 2940
3133 3128 3123 3118 3114 3107 3102 3095 3087 3080 3077 3079 3073 3067 3062 3059 3055 3047 3044 3042 3035 3028 3023 3022 3021 3018 3015 3012 3009 2997 2993 2983 2972 2966 2957 2953 2949 2946 2943 2942 2941 2938 2935 2933 2933
3131 3126 3122 3115 3113 3110 3103 3093 3085 3079 3080 3079 3072 3067 3063 3061 3055 3052 3045 3039 3034 3029 3027 3023 3017 3015 3014 3012 3007 2998 2990 2973 2963 2956 2954 2952 2952 2945 2941 2937 2935 2932 2929 2928 2927
3129 3125 3119 3115 3112 3106 3098 3090 3085 3082 3080 3079 3076 3070 3063 3060 3056 3051 3044 3040 3033 3029 3027 3021 3018 3016 3014 3010 3005 2995 2985 2967 2959 2955 2956 2950 2954 2945 2940 2937 2929 2925 2922 2919 2918
3127 3123 3118 3113 3109 3103 3096 3091 3088 3088 3089 3083 3074 3067 3061 3057 3053 3048 3044 3037 3034 3026 3021 3018 3017 3016 3012 3004 3000 2994 2983 2968 2968 2963 2962 2953 2951 2943 2939 2935 2929 2919 2911 2906 2904
3126 3121 3116 3112 3106 3101 3096 3092 3088 3090 3085 3081 3073 3068 3063 3056 3054 3049 3046 3043 3040 3037 3030 3025 3015 3015 3012 3008 3003 2998 2996 2996 2989 2973 2962 2947 2945 2941 2937 2932 2925 2915 2904 2895 2888
3125 3120 3116 3111 3105 3100 3097 3092 3094 3089 3083 3076 3071 3065 3064 3061 3056 3050 3047 3045 3043 3039 3038 3030 3018 3015 3013 3008 3005 2999 2997 2994 2983 2973 2966 2948 2943 2938 2931 2923 2914 2903 2893 2883 2878
3123 3119 3115 3109 3104 3099 3096 3093 3090 3087 3083 3076 3072 3068 3064 3058 3055 3051 3048 3046 3044 3041 3039 3035 3019 3011 3010 3007 3004 3001 2998 2988 2984 2976 2965 2949 2945 2939 2926 2912 2904 2894 2883 2875 2870
3121 3116 3113 3107 3103 3099 3093 3092 3088 3084 3080 3078 3071 3068 3065 3060 3055 3051 3050 3048 3043 3039 3036 3031 3027 3011 3008 3006 3001 2998 2993 2990 2986 2980 2973 2959 2946 2941 2932 2918 2905 2892 2879 2872 2868
3119 3115 3111 3105 3103 3095 3093 3091 3087 3082 3077 3073 3070 3066 3063 3060 3054 3051 3050 3048 3044 3039 3032 3029 3023 3013 3007 3004 3002 2998 2996 2990 2984 2979 2975 2967 2947 2942 2929 2917 2904 2888 2879 2873 2872
3117 3114 3109 3104 3101 3096 3093 3090 3086 3080 3076 3072 3070 3067 3064 3060 3057 3051 3048 3047 3042 3036 3031 3029 3023 3013 3006 3006 3002 3000 2996 2992 2985 2979 2974 2971 2949 2937 2924 2912 2900 2887 2880 2873 2870
3116 3112 3108 3103 3099 3096 3092 3088 3083 3079 3075 3071 3068 3064 3060 3059 3056 3049 3046 3043 3039 3035 3033 3028 3025 3023 3020 3010 3004 3000 2997 2991 2984 2979 2972 2965 2946 2929 2916 2904 2894 2885 2879 2872 2873
3114 3111 3108 3104 3098 3095 3091 3087 3083 3079 3075 3071 3067 3063 3058 3053 3051 3049 3046 3041 3038 3035 3033 3027 3022 3019 3011 3005 3001 2998 2995 2990 2983 2979 2973 2960 2949 2935 2923 2911 2902 2892 2881 2877 2875
3113 3110 3105 3101 3096 3093 3089 3085 3081 3077 3075 3072 3067 3062 3059 3055 3051 3044 3044 3042 3039 3035 3031 3028 3022 3015 3006 3004 3000 2997 2994 2990 2982 2977 2972 2962 2947 2939 2927 2918 2902 2894 2885 2879 2882
3109 3107 3103 3100 3095 3091 3087 3082 3079 3075 3072 3068 3065 3061 3058 3054 3050 3045 3043 3042 3039 3034 3030 3027 3023 3016 3004 3000 2995 2996 2993 2989 2982 2977 2972 2960 2949 2936 2923 2912 2904 2899 2895 2889 2890